Location: Hale Hill Observatory
(39.3806°N, 86.8431°W)
Time: 08:28:13
(UTC-05:00)

N. Korean satellite - Visible Passes

Search period start: 27 November 2020 00:00
Search period end: 07 December 2020 00:00
Orbit: 452 x 504 km, 97.2° (Epoch: 26 November)

Date Brightness Start Highest point End Pass type
(mag) Time Alt. Az. Time Alt. Az. Time Alt. Az.
27 Nov 8.9 05:39:35 10° NE 05:42:39 26° E 05:45:43 10° SSE visible
27 Nov 8.0 07:13:18 10° NNW 07:15:47 18° WNW 07:18:17 10° WSW visible
27 Nov 7.4 17:46:25 10° S 17:49:45 52° W 17:53:06 10° NNW visible
28 Nov 10.0 05:14:40 10° ENE 05:16:12 12° E 05:17:44 10° ESE visible
28 Nov 7.1 06:46:19 10° N 06:49:40 37° WNW 06:53:02 10° SW visible
29 Nov 6.5 06:19:49 10° N 06:23:27 86° WNW 06:27:06 10° SSW visible
29 Nov 9.8 18:28:38 10° SW 18:30:38 15° W 18:32:39 10° WNW visible
30 Nov 8.0 05:53:42 10° NNE 05:57:08 40° E 06:00:35 10° S visible
30 Nov 8.6 18:01:05 10° SSW 18:04:11 32° W 18:07:19 10° NNW visible
01 Dec 9.4 05:28:06 10° NE 05:30:44 19° E 05:33:21 10° SE visible
01 Dec 7.6 07:01:01 10° NNW 07:04:00 24° WNW 07:07:00 10° SW visible
02 Dec 6.7 06:34:15 10° N 06:37:48 53° WNW 06:41:23 10° SSW visible
03 Dec 7.0 06:07:53 10° NNE 06:11:31 65° E 06:15:10 10° S visible
03 Dec 9.4 18:15:55 10° SW 18:18:35 21° W 18:21:16 10° NW visible
04 Dec 8.7 05:41:56 10° NE 05:45:08 28° E 05:48:20 10° SSE visible
04 Dec 8.1 07:15:49 10° NNW 07:18:14 17° WNW 07:20:39 10° WSW visible
04 Dec 7.7 17:48:49 10° S 17:52:08 48° W 17:55:30 10° NNW visible
05 Dec 9.9 05:16:45 10° ENE 05:18:39 14° E 05:20:33 10° SE visible
05 Dec 7.2 06:48:43 10° N 06:52:04 34° WNW 06:55:25 10° SW visible
06 Dec 6.5 06:22:08 10° N 06:25:48 79° WNW 06:29:29 10° SSW visible
06 Dec 9.8 18:31:04 10° SW 18:32:56 14° W 18:34:47 10° WNW visible
